コプフ彗星

22P/Kopff (2022)

English version
Home page
Updated on November 1, 2025

---------------------------------------------------------------------

・ プロフィール

・ 写真集

・ 軌道要素

Epoch 2024 Mar. 31.0 TT = JDT 2460400.5
T 2022 Mar. 18.59031 TT                                 Rudenko
q   1.5406729            (2000.0)            P               Q
n   0.15504166     Peri.  162.91915     +0.23422489     +0.96956175
a   3.4316562      Node   120.57554     -0.90136090     +0.24406972
e   0.5510410      Incl.    4.75272     -0.36426259     +0.01949305
P   6.36
>From 5041 observations 2008 Jan. 30-2024 Apr. 9, mean residual 0".7.
     Nongravitational parameters A1 = +0.05, A2 = -0.0395.

・ 星図

・ 光度変化

        H = 14.5  G = 0.15               [    ,-525]  (              〜2020年10月 9日)
        m1 = 5.3 + 5 logΔ + 21.0 log r  [-525, 550]  (2020年10月 9日〜2023年 9月19日)
        H = 14.5  G = 0.15               [ 550,    ]  (2023年 9月19日〜              )

---------------------------------------------------------------------

軌道要素はM.P.E.C. 2024-L77に掲載されたものです。
星図はステラナビゲータ Ver.10 (アストロアーツ) で作成したものです。
光度グラフはComet for Windowsで作成したものです。

---------------------------------------------------------------------

Copyright(C) Seiichi Yoshida (comet@aerith.net). All rights reserved.